Location: Arcueil
(48.7999°N, 2.3326°E)
Time: 14:57:47
(UTC+00:00)

Cosmos 1461 - Pass Details

Date: 03 February 2023
Orbit: 492 x 644 km, 65.0° (Epoch: 25 March)

Event Time Altitude Azimuth Distance (km) Brightness Sun altitude
Rises 19:10:46 0° 232° (SW) 2,763 7.2 -23.1°
Reaches altitude 10° 19:12:59 10° 238° (WSW) 1,896 6.3 -23.5°
Maximum altitude 19:17:10 51° 315° (NW) 767 3.7 -24.2°
Enters shadow 19:18:16 40° 360° (N) 902 3.8 -24.4°
